Location: Bédeille
(43.0872°N, 1.1041°E)
Time: 13:21:40
(UTC+00:00)

Daily predictions for brighter satellites

Satellite Brightness Start Highest point End
(mag) Time Altitude Azimuth Time Altitude Azimuth Time Altitude Azimuth
Cosmos 1190 Rocket 4.1 17:33:40 10° S 17:38:54 64° ESE 17:44:08 10° NNE
Meteor PRIRODA 3.5 17:35:54 10° SSE 17:39:26 80° ENE 17:43:00 10° N
USA 290 4.1 17:37:44 10° SW 17:40:38 30° WNW 17:43:32 10° N
IKONOS-2 4.5 17:36:50 10° NNE 17:41:06 72° ESE 17:45:20 10° S
Cosmos 1633 4.0 17:39:44 10° SE 17:41:48 16° E 17:43:52 10° NE
Cosmos 1461 3.7 17:38:17 10° S 17:42:04 34° ESE 17:46:03 10° NE
Cosmos 1408 2.3 17:40:03 10° S 17:43:25 67° E 17:46:50 10° NNE
Okean O Rocket 3.4 17:42:17 10° E 17:44:05 12° ENE 17:45:52 10° NE
Cosmos 2266 Rocket 4.1 17:39:55 10° N 17:46:13 84° W 17:52:21 10° S
Cosmos 1328 3.7 17:43:38 10° S 17:47:37 82° E 17:51:36 10° N
Cosmos 1844 Rocket 3.3 17:43:45 10° N 17:48:50 35° NE 17:53:52 10° ESE
NOAA 6 4.1 17:46:30 10° SSE 17:51:39 89° ENE 17:56:51 10° NNW
CZ-4B DEB 4.4 17:47:46 10° SE 17:52:57 48° ENE 17:58:12 10° N
Lacrosse 5 rocket 2.7 17:51:09 10° NNW 17:53:41 18° NNE 17:55:52 12° ENE
CZ-4B R/B 4.0 17:51:08 10° ESE 17:55:33 27° ENE 18:00:04 10° N
DELTA 2 DEB (DPAF) 4.4 17:51:19 10° N 17:55:42 71° WNW 18:00:03 10° SSW
Cosmos 2227 4.5 17:57:27 10° NNW 18:03:13 77° WSW 18:08:57 10° SSE
SKYMED 2 3.5 17:59:14 10° NNE 18:03:36 75° ESE 18:07:56 10° S
CZ-4 R/B 2.8 18:01:32 10° ESE 18:04:27 19° ENE 18:07:20 10° NNE
Cosmos 1844 4.2 17:59:26 10° NNW 18:04:54 40° ENE 18:10:18 10° SE
Cosmos 1892 2.5 18:01:32 10° S 18:05:14 79° E 18:09:00 10° N
Cosmos 468 Rocket 4.1 18:02:48 10° N 18:07:51 51° ENE 18:12:49 10° SE
Cosmos 2058 Rocket 4.0 18:04:21 10° NNE 18:08:01 25° ENE 18:11:42 10° SE
Cosmos 2360 Rocket 2.5 18:03:50 10° S 18:09:11 47° ESE 18:14:37 10° NE
Cosmos 2219 Rocket 3.4 18:05:28 10° SSE 18:09:32 21° E 18:12:21 15° ENE
CZ-4C R/B 3.0 18:07:18 10° NNE 18:11:06 74° ESE 18:14:42 10° S
YAOGAN 1 3.1 18:07:11 10° SE 18:11:07 36° ENE 18:15:05 10° N
Cosmos 1825 2.1 18:11:35 10° S 18:15:13 60° E 18:18:52 10° NNE
Atlas Centaur 2 4.4 18:09:26 10° SSW 18:15:32 24° SSE 18:21:47 10° ESE
Cosmos 1954 Rocket 4.0 18:11:11 10° SSW 18:16:27 88° WNW 18:21:42 10° NNE
RESURS DK-1 3.0 18:13:38 10° N 18:17:24 34° ENE 18:20:31 14° ESE
Cosmos 2333 Rocket 2.8 18:12:24 10° S 18:17:30 36° ESE 18:22:21 11° NE
Cosmos 2278 Rocket 4.2 18:18:50 10° NNE 18:19:25 10° NE 18:19:41 10° NE
Cosmos 2322 Rocket 2.2 18:15:44 10° SSW 18:21:21 87° ESE 18:27:00 10° NNE
USA 215 3.6 18:16:35 10° SE 18:23:05 67° SW 18:29:38 10° NW
Cosmos 1763 Rocket 3.4 18:19:58 10° NNW 18:25:09 89° ENE 18:30:15 10° SSE
Meteor 2-12 Rocket 4.4 18:20:55 10° N 18:26:59 67° E 18:33:00 10° SSE
Cosmos 1850 Rocket 4.4 18:23:31 10° S 18:28:18 39° ESE 18:32:18 14° NE
BlueWalker 3 3.9 18:28:49 10° NW 18:31:34 18° N 18:33:03 15° NNE
Lacrosse 5 2.3 18:26:47 10° WSW 18:31:50 62° NW 18:35:50 16° NE
SL-4 R/B 3.4 18:29:12 10° NW 18:32:00 21° N 18:33:04 19° NNE
COSMOS 2428 4.0 18:28:53 10° SE 18:32:20 20° ESE 18:32:20 20° ESE
ATLAS 2AS CENTAUR R/B 2.7 18:26:01 10° NW 18:33:01 84° WSW 18:39:36 10° SSE
BREEZE-M DEB (TANK) 4.3 18:30:50 10° WNW 18:34:43 25° SW 18:36:57 10° S
S3M 4.4 18:29:39 10° SSE 18:35:31 40° E 18:41:23 10° NNE
SL-16 R/B 3.0 18:30:33 10° SW 18:36:03 51° WNW 18:41:36 10° NNE
Cosmos 1741 Rocket 4.3 18:31:07 10° S 18:36:07 45° ESE 18:40:08 16° NE
Cosmos 1606 Rocket 3.8 18:32:00 10° NNW 18:36:18 69° W 18:40:35 10° S
IRIDIUM 104 4.3 18:31:14 10° N 18:36:25 60° E 18:41:33 10° SSE
In-Cosmos 22 Rocket 4.3 18:30:39 10° S 18:36:27 88° W 18:42:20 10° N
Cosmos 841 Rocket 3.8 18:32:42 10° N 18:37:46 45° ENE 18:42:08 13° SE
Nadezhda 2 Rocket 4.4 18:31:40 10° N 18:37:53 86° E 18:44:00 10° S
Cosmos 2333 4.3 18:33:14 10° S 18:38:37 51° ESE 18:42:54 16° NE
Cosmos 540 Rocket 3.3 18:34:06 10° NNW 18:39:16 77° ENE 18:44:23 10° SSE
Cosmos 1340 2.8 18:36:10 10° N 18:39:43 45° ENE 18:41:59 19° SE
IRIDIUM 114 4.2 18:40:19 10° N 18:45:33 73° E 18:50:46 10° S
Cosmos 1892 Rocket 3.6 18:41:57 10° S 18:46:22 83° W 18:50:48 10° N
MINOTAUR 4 R/B 3.8 18:46:22 20° NNE 18:48:39 83° ESE 18:52:03 10° SSW
COSMO-SKYMED 1 4.3 18:47:33 10° N 18:51:28 33° WNW 18:55:21 10° SW
Spot 1 3.9 18:51:48 36° NE 18:53:10 55° ESE 18:57:08 10° S
PAYLOAD B 4.5 18:47:48 10° S 18:53:18 71° WSW 18:58:49 10° NNW
IRIDIUM 103 4.2 18:49:28 10° N 18:54:44 88° E 18:59:57 10° S
Genesis I 3.4 18:54:26 10° SW 18:58:21 68° NW 18:59:51 36° NNE
Cosmos 2322 4.0 18:53:50 10° S 18:59:12 44° ESE 19:00:25 39° ENE
ATLAS CENTAUR R/B 4.4 18:58:59 10° NW 18:59:56 11° NNW 19:00:52 10° NNW
Meteor 1-27 4.3 18:58:26 10° NNW 19:04:14 80° W 19:09:55 10° S
Cosmos 1869 3.6 19:02:18 10° NNW 19:06:11 64° W 19:10:04 10° S
ISS -1.0 19:07:09 10° W 19:09:25 17° SW 19:11:34 10° S
Okean O Rocket 1.7 19:15:25 10° S 19:19:47 74° WSW 19:24:13 10° NNW
Cosmos 1745 Rocket 3.9 19:17:20 10° N 19:23:37 86° W 19:29:47 10° S
Cosmos 1844 Rocket 4.1 19:27:39 10° NW 19:32:41 36° WSW 19:37:42 10° S
Lacrosse 5 rocket 2.6 19:29:19 10° NW 19:31:18 31° NW 19:31:18 31° NW
Cosmos 1932 4.5 19:27:54 10° SSW 19:34:01 61° SE 19:34:01 61° SE
CZ-4B R/B 4.3 19:30:50 10° S 19:35:52 43° W 19:41:02 10° NNW
CZ-4 R/B 2.8 19:35:13 10° SSW 19:39:04 38° W 19:42:53 10° NNW
Cosmos 1709 Rocket 3.8 19:35:56 10° N 19:42:08 85° E 19:43:12 63° SSE
Cosmos 44 Rocket 4.0 19:44:58 10° SW 19:49:10 50° WNW 19:49:10 50° WNW
Cosmos 2219 Rocket 2.7 19:47:31 10° SW 19:52:59 57° WNW 19:54:09 47° NNW
Cosmos 2360 Rocket 4.0 19:48:36 10° WSW 19:53:24 28° NW 19:57:40 12° N
Cosmos 2333 Rocket 3.6 19:56:35 10° WSW 20:01:44 35° NW 20:04:25 23° N
Atlas Centaur 2 4.0 19:56:56 10° SW 20:04:11 33° S 20:04:15 33° S
Cosmos 2278 Rocket 3.9 19:59:24 10° NNW 20:01:33 23° N 20:01:33 23° N
Lacrosse 5 3.9 20:11:48 10° WNW 20:15:03 21° NNW 20:15:03 21° NNW
COSMOS 2428 3.8 20:10:56 10° SW 20:14:26 37° SW 20:14:26 37° SW
